Weather History for KMIB - January, 2013

Change the Weather History Date:

Tuesday, January 1, 2013

  Actual Average Record
Temperature  
Mean Temperature 9 °F -  
Max Temperature 29 °F 17 °F 41 °F (1997)
Min Temperature -11 °F 1 °F -22 °F (2014)
Degree Days  
Heating Degree Days 56    
Moisture  
Dew Point 12 °F    
Average Humidity 88    
Maximum Humidity 100    
Minimum Humidity 78    
Precipitation  
Precipitation 0.00 in - - ()
Sea Level Pressure  
Sea Level Pressure 30.05 in    
Wind  
Wind Speed 9 mph (West)    
Max Wind Speed 25 mph    
Max Gust Speed 31 mph    
Visibility 8 miles    
Events Snow    
Averages and records for this station are not official NWS values.
T = Trace of Precipitation, MM = Missing Value Source: NWS Daily Summary

Daily Weather History Graph

Daily Weather History Graph

Search for Another Location

Airport or City:

Trip Planner

Search our weather history database for the weather conditions in past years. The results will help you decide how hot, cold, wet, or windy it might be!

Date:

Astronomy

Jan. 01, 2013 Rise Set
Actual Time 8:37 AM CST 5:01 PM CST
Civil Twilight 8:00 AM CST 5:38 PM CST
Nautical Twilight 7:20 AM CST 6:18 PM CST
Astronomical Twilight 6:42 AM CST 6:56 PM CST
Moon 9:58 PM CST (1/1) 10:28 AM CST (1/1)
Length of Visible Light 9h 37m
Length of Day
8h 24m
Waning Gibbous, 83% of the Moon is Illuminated
Jan 1
Waning Gibbous
Jan 4
Last Quarter
Jan 11
New
Jan 18
First Quarter
Jan 26
Full

Hourly Weather History & Observations

Time (CST) Temp. Windchill Dew Point Humidity Pressure Visibility Wind Dir Wind Speed Gust Speed Precip Events Conditions
12:55 AM -11.4 °F -23.2 °F -16.4 °F 78% 30.24 in 10.0 mi South 4.6 mph - N/A   Clear
1:55 AM -11.6 °F -23.4 °F -16.2 °F 80% 30.23 in 10.0 mi SSW 4.6 mph - N/A   Clear
2:55 AM -1.3 °F -15.7 °F -4.2 °F 88% 30.22 in 10.0 mi WSW 8.1 mph - N/A   Clear
3:40 AM 5.0 °F -6.9 °F 1.4 °F 85% 30.20 in 10.0 mi West 6.9 mph - N/A   Partly Cloudy
3:49 AM 5.0 °F -6.9 °F 1.4 °F 85% 30.20 in 10.0 mi West 6.9 mph - N/A   Mostly Cloudy
3:55 AM 5.4 °F -7.6 °F 2.1 °F 86% 30.19 in 10.0 mi West 8.1 mph - N/A   Mostly Cloudy
3:57 AM 5.0 °F -8.1 °F 1.4 °F 85% 30.19 in 10.0 mi West 8.1 mph - N/A   Mostly Cloudy
4:24 AM 5.0 °F -4.1 °F 1.4 °F 85% 30.19 in 10.0 mi SSW 4.6 mph - N/A   Mostly Cloudy
4:30 AM 5.0 °F -5.6 °F 1.4 °F 85% 30.18 in 10.0 mi SW 5.8 mph - N/A   Scattered Clouds
4:55 AM 5.2 °F -5.4 °F 1.9 °F 86% 30.18 in 10.0 mi WSW 5.8 mph - N/A   Clear
5:30 AM 3.2 °F - -0.4 °F 85% 30.17 in 10.0 mi Calm Calm - N/A   Partly Cloudy
5:52 AM -0.4 °F -12.0 °F -4.0 °F 85% 30.17 in 10.0 mi SW 5.8 mph - N/A   Partly Cloudy
5:55 AM 0.1 °F -9.7 °F -3.6 °F 84% 30.17 in 10.0 mi West 4.6 mph - N/A   Partly Cloudy
6:02 AM 1.4 °F -8.3 °F -2.2 °F 85% 30.17 in 9.0 mi WSW 4.6 mph - N/A   Mostly Cloudy
6:08 AM 1.4 °F -8.3 °F -2.2 °F 85% 30.16 in 9.0 mi WSW 4.6 mph - N/A   Scattered Clouds
6:42 AM 5.0 °F -4.1 °F 1.4 °F 85% 30.15 in 10.0 mi WSW 4.6 mph - N/A   Partly Cloudy
6:51 AM 3.2 °F -6.2 °F -0.4 °F 85% 30.15 in 6.0 mi SW 4.6 mph - N/A   Mostly Cloudy
6:53 AM 3.2 °F -6.2 °F -0.4 °F 85% 30.15 in 6.0 mi SSW 4.6 mph - N/A   Mostly Cloudy
6:55 AM 2.7 °F -6.8 °F -0.9 °F 85% 30.14 in 6.0 mi SSW 4.6 mph - N/A   Mostly Cloudy
7:06 AM 1.4 °F -9.9 °F -4.0 °F 78% 30.15 in 7.0 mi SW 5.8 mph - N/A   Overcast
7:48 AM 8.6 °F 0.1 °F 5.0 °F 85% 30.13 in 10.0 mi WNW 4.6 mph - N/A   Mostly Cloudy
7:53 AM 8.6 °F 0.1 °F 5.0 °F 85% 30.13 in 7.0 mi West 4.6 mph - N/A   Mostly Cloudy
7:55 AM 8.2 °F -0.3 °F 5.5 °F 89% 30.13 in 6.0 mi West 4.6 mph - N/A   Mostly Cloudy
7:57 AM 8.6 °F 2.0 °F 5.0 °F 85% 30.12 in 4.0 mi WNW 3.5 mph - N/A   Overcast
8:00 AM 8.6 °F 0.1 °F 5.0 °F 85% 30.12 in 4.0 mi West 4.6 mph - N/A   Overcast
8:02 AM 8.6 °F 0.1 °F 5.0 °F 85% 30.12 in 4.0 mi West 4.6 mph - N/A   Overcast
8:08 AM 6.8 °F - 5.0 °F 92% 30.12 in 4.0 mi Calm Calm - N/A   Overcast
8:15 AM 8.6 °F 2.0 °F 5.0 °F 85% 30.12 in 4.0 mi WSW 3.5 mph - N/A   Overcast
8:17 AM 8.6 °F 0.1 °F 5.0 °F 85% 30.12 in 4.0 mi SW 4.6 mph - N/A   Overcast
8:36 AM 10.4 °F 0.8 °F 8.6 °F 92% 30.11 in 9.0 mi WSW 5.8 mph - N/A   Scattered Clouds
8:55 AM 12.0 °F 0.5 °F 9.7 °F 90% 30.10 in 10.0 mi WSW 8.1 mph - N/A   Partly Cloudy
9:55 AM 16.2 °F 1.9 °F 14.2 °F 92% 30.06 in 10.0 mi WSW 13.8 mph - N/A   Clear
10:45 AM 17.6 °F 5.0 °F 15.8 °F 93% 30.07 in 10.0 mi West 11.5 mph - N/A   Partly Cloudy
10:55 AM 17.2 °F 4.5 °F 15.6 °F 93% 30.08 in 10.0 mi WSW 11.5 mph - N/A   Mostly Cloudy
11:15 AM 17.6 °F 5.7 °F 15.8 °F 93% 30.07 in 10.0 mi WSW 10.4 mph - N/A   Overcast
11:38 AM 17.6 °F 4.3 °F 15.8 °F 93% 30.07 in 10.0 mi WSW 12.7 mph - N/A   Scattered Clouds
11:55 AM 18.1 °F 2.9 °F 15.4 °F 89% 30.06 in 10.0 mi WSW 17.3 mph - N/A   Partly Cloudy
1:55 PM 20.5 °F 6.9 °F 14.9 °F 79% 29.99 in 10.0 mi West 15.0 mph - N/A   Overcast
2:55 PM 22.1 °F 8.9 °F 16.9 °F 80% 29.95 in 10.0 mi West 15.0 mph - N/A   Overcast
3:55 PM 23.5 °F 13.7 °F 19.4 °F 84% 29.94 in 10.0 mi West 9.2 mph - N/A   Overcast
4:02 PM 23.0 °F 13.1 °F 19.4 °F 86% 29.94 in 7.0 mi West 9.2 mph - N/A   Overcast
4:16 PM 23.0 °F 12.4 °F 21.2 °F 93% 29.94 in 5.0 mi West 10.4 mph - N/A Snow Light Snow
4:55 PM 24.6 °F 11.3 °F 22.1 °F 90% 29.95 in 4.0 mi West 17.3 mph - 0.00 in   Overcast
5:04 PM 24.8 °F 13.4 °F 23.0 °F 93% 29.95 in 2.5 mi West 12.7 mph - N/A   Overcast
5:17 PM 24.8 °F 12.4 °F 23.0 °F 93% 29.95 in 1.8 mi West 15.0 mph - N/A Snow Light Snow
5:22 PM 24.8 °F 12.4 °F 23.0 °F 93% 29.95 in 1.2 mi West 15.0 mph - N/A Snow Light Snow
5:26 PM 24.8 °F 12.9 °F 23.0 °F 93% 29.95 in 1.5 mi West 13.8 mph - N/A Snow Light Snow
5:28 PM 24.8 °F 13.4 °F 23.0 °F 93% 29.95 in 1.5 mi West 12.7 mph - N/A Snow Light Snow
5:30 PM 24.8 °F 13.4 °F 23.0 °F 93% 29.95 in 2.0 mi West 12.7 mph - N/A Snow Light Snow
5:32 PM 24.8 °F 13.4 °F 23.0 °F 93% 29.95 in 2.5 mi West 12.7 mph - N/A Snow Light Snow
5:33 PM 24.8 °F 13.4 °F 23.0 °F 93% 29.95 in 3.0 mi West 12.7 mph - N/A Snow Light Snow
5:35 PM 24.8 °F 12.9 °F 24.8 °F 100% 29.95 in 4.0 mi West 13.8 mph - N/A Snow Light Snow
5:38 PM 24.8 °F 14.0 °F 24.8 °F 100% 29.95 in 5.0 mi West 11.5 mph - N/A Snow Light Snow
5:55 PM 26.2 °F 14.2 °F 24.8 °F 94% 29.94 in 10.0 mi West 15.0 mph - 0.00 in   Mostly Cloudy
6:19 PM 28.4 °F 16.2 °F 24.8 °F 86% 29.94 in 10.0 mi West 17.3 mph - N/A   Mostly Cloudy
6:55 PM 27.3 °F 17.1 °F 23.9 °F 87% 29.94 in 10.0 mi West 11.5 mph - 0.00 in   Overcast
7:47 PM 28.4 °F 15.8 °F 24.8 °F 86% 29.92 in 10.0 mi WNW 18.4 mph - N/A   Overcast
7:55 PM 29.1 °F 17.1 °F 25.5 °F 86% 29.92 in 10.0 mi WNW 17.3 mph - N/A   Overcast
8:55 PM 29.3 °F 16.2 °F 25.3 °F 85% 29.91 in 10.0 mi WNW 20.7 mph - N/A   Overcast
9:18 PM 28.4 °F 14.4 °F 24.8 °F 86% 29.91 in 10.0 mi WNW 23.0 mph - N/A   Overcast
9:29 PM 28.4 °F 14.1 °F 24.8 °F 86% 29.91 in 9.0 mi WNW 24.2 mph 31.1 mph N/A   Overcast
9:55 PM 28.8 °F 15.2 °F 25.3 °F 87% 29.90 in 10.0 mi WNW 21.9 mph 31.1 mph 0.00 in   Overcast
10:03 PM 28.4 °F 14.1 °F 24.8 °F 86% 29.90 in 10.0 mi WNW 24.2 mph - N/A   Overcast
10:10 PM 28.4 °F 13.8 °F 24.8 °F 86% 29.90 in 10.0 mi WNW 25.3 mph - N/A   Overcast
10:55 PM 28.9 °F 15.4 °F 25.9 °F 88% 29.91 in 10.0 mi WNW 21.9 mph - N/A   Overcast
11:30 PM 28.4 °F 14.4 °F 26.6 °F 93% 29.91 in 10.0 mi WNW 23.0 mph - N/A   Overcast
11:55 PM 29.3 °F 15.9 °F 26.1 °F 88% 29.91 in 10.0 mi NW 21.9 mph - N/A   Overcast